RYR26YA EBCI-EPMO

Flight info

Callsign RYR26YA
Flight time 1h 34m
Altitude 35000
Route SPI Y862 KENUM N853 ONUNE DCT LARBU DCT SUBIX DCT OBOKU P150 DOSIX
Aircraft B738/M-SDE2E3FGHIRWXY/LB1

Departure

Time 2026-04-24 13:59
Airport Brussels South Charleroi Airport (EBCI)

Arrival

Time 2026-04-24 15:34
Airport Warsaw Modlin Airport (EPMO)
Time Latitude Longitude Altitude Speed Heading
2026-04-24 13:33 50.46841 4.46985 584 ft 0 kts 336°
2026-04-24 13:51 50.46820 4.47002 583 ft 4 kts 324°
2026-04-24 13:51 50.46802 4.47030 582 ft 4 kts 294°
2026-04-24 13:51 50.46800 4.47063 583 ft 2 kts 246°
2026-04-24 13:52 50.46800 4.47065 583 ft 1 kts 245°
2026-04-24 13:54 50.46798 4.47056 583 ft 7 kts 245°
2026-04-24 13:54 50.46762 4.46939 583 ft 13 kts 244°
2026-04-24 13:54 50.46722 4.46810 585 ft 13 kts 238°
2026-04-24 13:54 50.46642 4.46800 589 ft 13 kts 167°
2026-04-24 13:55 50.46582 4.46717 590 ft 13 kts 245°
2026-04-24 13:55 50.46531 4.46546 589 ft 20 kts 245°
2026-04-24 13:55 50.46471 4.46339 588 ft 21 kts 245°
2026-04-24 13:55 50.46410 4.46131 590 ft 23 kts 245°
2026-04-24 13:56 50.46343 4.45901 596 ft 23 kts 246°
2026-04-24 13:56 50.46279 4.45679 596 ft 22 kts 245°
2026-04-24 13:56 50.46218 4.45461 597 ft 21 kts 247°
2026-04-24 13:56 50.46156 4.45252 597 ft 21 kts 245°
2026-04-24 13:57 50.46097 4.45048 594 ft 21 kts 246°
2026-04-24 13:57 50.46045 4.44875 595 ft 17 kts 244°
2026-04-24 13:57 50.45982 4.44773 594 ft 5 kts 193°
2026-04-24 13:57 50.45946 4.44778 595 ft 5 kts 162°
2026-04-24 13:58 50.45914 4.44801 596 ft 5 kts 154°
2026-04-24 13:58 50.45882 4.44861 595 ft 10 kts 110°
2026-04-24 13:58 50.45894 4.44970 593 ft 9 kts 65°
2026-04-24 13:58 50.45899 4.44989 592 ft 1 kts 65°
2026-04-24 13:59 50.45932 4.45101 592 ft 36 kts 65°
2026-04-24 13:59 50.46151 4.45848 593 ft 112 kts 65°
2026-04-24 13:59 50.46566 4.47228 799 ft 155 kts 64°
2026-04-24 13:59 50.47031 4.48853 1511 ft 168 kts 57°
2026-04-24 14:00 50.47795 4.50129 2659 ft 157 kts 32°
2026-04-24 14:00 50.48644 4.51157 3429 ft 158 kts 51°
2026-04-24 14:00 50.49343 4.52458 4283 ft 158 kts 48°
2026-04-24 14:00 50.50112 4.53860 4626 ft 184 kts 50°
2026-04-24 14:01 50.50977 4.55523 4848 ft 209 kts 50°
2026-04-24 14:01 50.51937 4.57395 5062 ft 228 kts 50°
2026-04-24 14:01 50.52961 4.59410 5411 ft 248 kts 51°
2026-04-24 14:01 50.54057 4.61616 6002 ft 259 kts 52°
2026-04-24 14:02 50.55147 4.63821 6778 ft 264 kts 52°
2026-04-24 14:02 50.56251 4.66098 7491 ft 268 kts 57°
2026-04-24 14:02 50.56789 4.68914 8226 ft 274 kts 89°
2026-04-24 14:02 50.56654 4.71929 8964 ft 281 kts 93°
2026-04-24 14:03 50.56468 4.75057 9650 ft 287 kts 94°
2026-04-24 14:03 50.56276 4.78201 10389 ft 290 kts 93°
2026-04-24 14:03 50.56086 4.81399 10691 ft 310 kts 94°
2026-04-24 14:03 50.55886 4.84908 10870 ft 332 kts 94°
2026-04-24 14:04 50.55678 4.88592 11307 ft 344 kts 94°
2026-04-24 14:04 50.55469 4.92375 12000 ft 347 kts 94°
2026-04-24 14:04 50.55259 4.96186 12691 ft 351 kts 94°
2026-04-24 14:04 50.55048 5.00035 13363 ft 357 kts 95°
2026-04-24 14:05 50.54832 5.03967 14077 ft 362 kts 95°
2026-04-24 14:05 50.54614 5.07934 14736 ft 366 kts 95°
2026-04-24 14:05 50.54393 5.11940 15431 ft 369 kts 95°
2026-04-24 14:05 50.54169 5.15986 16105 ft 374 kts 96°
2026-04-24 14:06 50.53941 5.20081 16762 ft 378 kts 96°
2026-04-24 14:06 50.53708 5.24231 17413 ft 383 kts 96°
2026-04-24 14:06 50.53472 5.28412 18115 ft 385 kts 96°
2026-04-24 14:06 50.53236 5.32568 18783 ft 388 kts 96°
2026-04-24 14:07 50.52990 5.36877 19293 ft 394 kts 96°
2026-04-24 14:07 50.52745 5.41130 19848 ft 397 kts 96°
2026-04-24 14:07 50.52494 5.45468 20422 ft 401 kts 96°
2026-04-24 14:07 50.52241 5.49844 20979 ft 404 kts 96°
2026-04-24 14:08 50.51981 5.54274 21489 ft 408 kts 97°
2026-04-24 14:08 50.51826 5.58745 21994 ft 414 kts 89°
2026-04-24 14:08 50.52216 5.63252 22491 ft 420 kts 77°
2026-04-24 14:08 50.53153 5.67618 22969 ft 425 kts 65°
2026-04-24 14:09 50.54514 5.71773 23469 ft 429 kts 62°
2026-04-24 14:09 50.55960 5.75908 23924 ft 433 kts 61°
2026-04-24 14:09 50.57425 5.80068 24353 ft 436 kts 61°
2026-04-24 14:09 50.58885 5.84260 24848 ft 438 kts 62°
2026-04-24 14:10 50.59847 5.87058 25129 ft 439 kts 62°
2026-04-24 14:10 50.61786 5.92766 25667 ft 444 kts 62°
2026-04-24 14:10 50.63235 5.97072 26063 ft 447 kts 62°
2026-04-24 14:10 50.64690 6.01412 26453 ft 450 kts 62°
2026-04-24 14:11 50.66157 6.05794 26842 ft 453 kts 62°
2026-04-24 14:11 50.67634 6.10207 27217 ft 456 kts 62°
2026-04-24 14:11 50.70628 6.19079 28011 ft 460 kts 61°
2026-04-24 14:12 50.72323 6.23366 28386 ft 463 kts 53°
2026-04-24 14:12 50.74416 6.27242 28717 ft 465 kts 43°
2026-04-24 14:12 50.76785 6.30725 29077 ft 467 kts 41°
2026-04-24 14:12 50.79208 6.34168 29422 ft 469 kts 40°
2026-04-24 14:13 50.81644 6.37622 29755 ft 472 kts 41°
2026-04-24 14:13 50.84054 6.41074 30120 ft 473 kts 41°
2026-04-24 14:13 50.86486 6.44601 30518 ft 473 kts 41°
2026-04-24 14:13 50.88906 6.48140 30930 ft 472 kts 41°
2026-04-24 14:14 50.90997 6.51214 31257 ft 471 kts 41°
2026-04-24 14:14 50.93397 6.54751 31602 ft 471 kts 41°
2026-04-24 14:14 50.98196 6.61829 32293 ft 471 kts 41°
2026-04-24 14:15 50.99789 6.64181 32533 ft 471 kts 41°
2026-04-24 14:15 51.02893 6.69011 32962 ft 472 kts 49°
2026-04-24 14:15 51.04281 6.71770 33179 ft 472 kts 52°
2026-04-24 14:15 51.06847 6.77358 33615 ft 472 kts 53°
2026-04-24 14:16 51.08122 6.80146 33831 ft 472 kts 53°
2026-04-24 14:16 51.10101 6.84399 34155 ft 472 kts 52°
2026-04-24 14:16 51.12057 6.88547 34433 ft 472 kts 52°
2026-04-24 14:17 51.15975 6.96842 35074 ft 469 kts 52°
2026-04-24 14:17 51.17930 7.00992 35254 ft 471 kts 52°
2026-04-24 14:17 51.21885 7.09418 35237 ft 475 kts 52°
2026-04-24 14:18 51.25805 7.17807 35233 ft 468 kts 52°
2026-04-24 14:18 51.29687 7.26143 35237 ft 467 kts 52°
2026-04-24 14:19 51.33551 7.34461 35236 ft 467 kts 52°
2026-04-24 14:19 51.37329 7.42945 35227 ft 468 kts 60°
2026-04-24 14:20 51.40233 7.52290 35239 ft 469 kts 64°
2026-04-24 14:20 51.42991 7.61763 35244 ft 470 kts 64°
2026-04-24 14:21 51.45776 7.71245 35244 ft 470 kts 64°
2026-04-24 14:21 51.48592 7.80738 35240 ft 471 kts 64°
2026-04-24 14:22 51.51411 7.90234 35234 ft 472 kts 64°
2026-04-24 14:23 51.55620 8.04485 35226 ft 472 kts 64°
2026-04-24 14:23 51.58426 8.14037 35220 ft 473 kts 64°
2026-04-24 14:24 51.61231 8.23629 35212 ft 473 kts 64°
2026-04-24 14:24 51.64024 8.33218 35211 ft 473 kts 64°
2026-04-24 14:25 51.66791 8.42754 35213 ft 473 kts 64°
2026-04-24 14:25 51.69566 8.52357 35209 ft 473 kts 64°
2026-04-24 14:26 51.72330 8.61958 35211 ft 472 kts 64°
2026-04-24 14:26 51.75085 8.71570 35212 ft 472 kts 64°
2026-04-24 14:27 51.77834 8.81199 35201 ft 472 kts 64°
2026-04-24 14:27 51.80571 8.90826 35200 ft 471 kts 64°
2026-04-24 14:28 51.83284 9.00410 35186 ft 471 kts 64°
2026-04-24 14:28 51.86024 9.10123 35182 ft 471 kts 64°
2026-04-24 14:29 51.88601 9.19796 35173 ft 472 kts 71°
2026-04-24 14:29 51.89947 9.29680 35188 ft 472 kts 79°
2026-04-24 14:30 51.90883 9.38445 35178 ft 472 kts 80°
2026-04-24 14:30 51.92188 9.50622 35189 ft 471 kts 79°
2026-04-24 14:31 51.93349 9.61118 35178 ft 472 kts 79°
2026-04-24 14:31 51.94515 9.71585 35177 ft 472 kts 79°
2026-04-24 14:32 51.95654 9.81875 35177 ft 472 kts 79°
2026-04-24 14:32 51.96771 9.92063 35180 ft 472 kts 79°
2026-04-24 14:33 51.97911 10.02556 35178 ft 472 kts 79°
2026-04-24 14:33 51.99046 10.13095 35190 ft 479 kts 79°
2026-04-24 14:34 52.00195 10.23856 35187 ft 490 kts 79°
2026-04-24 14:34 52.01352 10.34802 35170 ft 493 kts 79°
2026-04-24 14:35 52.02496 10.45729 35170 ft 494 kts 79°
2026-04-24 14:35 52.03636 10.56732 35141 ft 491 kts 79°
2026-04-24 14:36 52.04749 10.67565 35169 ft 484 kts 79°
2026-04-24 14:36 52.05749 10.78408 35168 ft 486 kts 82°
2026-04-24 14:37 52.06476 10.89332 35168 ft 487 kts 83°
2026-04-24 14:37 52.07168 11.00274 35163 ft 487 kts 82°
2026-04-24 14:38 52.07905 11.11199 35157 ft 488 kts 82°
2026-04-24 14:38 52.08655 11.22176 35156 ft 489 kts 82°
2026-04-24 14:39 52.09392 11.33175 35157 ft 489 kts 82°
2026-04-24 14:39 52.10114 11.44180 35150 ft 489 kts 82°
2026-04-24 14:40 52.10824 11.55189 35156 ft 489 kts 82°
2026-04-24 14:40 52.11522 11.66191 35145 ft 489 kts 82°
2026-04-24 14:41 52.12211 11.77202 35144 ft 488 kts 82°
2026-04-24 14:41 52.12883 11.88109 35140 ft 488 kts 82°
2026-04-24 14:42 52.13550 11.99095 35131 ft 487 kts 82°
2026-04-24 14:42 52.14207 12.10087 35136 ft 487 kts 82°
2026-04-24 14:43 52.14852 12.21056 35123 ft 487 kts 82°
2026-04-24 14:43 52.15486 12.32013 35128 ft 486 kts 82°
2026-04-24 14:44 52.16111 12.42996 35120 ft 486 kts 82°
2026-04-24 14:44 52.16724 12.53953 35121 ft 485 kts 82°
2026-04-24 14:45 52.17324 12.64849 35114 ft 485 kts 82°
2026-04-24 14:45 52.17916 12.75793 35114 ft 485 kts 82°
2026-04-24 14:46 52.18499 12.86752 35112 ft 485 kts 82°
2026-04-24 14:46 52.19071 12.97713 35107 ft 485 kts 82°
2026-04-24 14:47 52.19539 13.06833 35102 ft 485 kts 82°
2026-04-24 14:47 52.20181 13.19568 35103 ft 485 kts 82°
2026-04-24 14:48 52.20722 13.30515 35102 ft 485 kts 82°
2026-04-24 14:48 52.21254 13.41485 35098 ft 485 kts 82°
2026-04-24 14:49 52.21775 13.52457 35103 ft 485 kts 82°
2026-04-24 14:49 52.22286 13.63416 35103 ft 485 kts 82°
2026-04-24 14:50 52.22787 13.74385 35101 ft 485 kts 82°
2026-04-24 14:50 52.23277 13.85356 35097 ft 485 kts 82°
2026-04-24 14:51 52.23758 13.96336 35090 ft 485 kts 82°
2026-04-24 14:51 52.24228 14.07305 35085 ft 485 kts 82°
2026-04-24 14:52 52.24685 14.18211 35087 ft 485 kts 82°
2026-04-24 14:52 52.25135 14.29196 35083 ft 485 kts 82°
2026-04-24 14:53 52.25574 14.40173 35079 ft 485 kts 82°
2026-04-24 14:53 52.26004 14.51156 35078 ft 485 kts 82°
2026-04-24 14:54 52.26423 14.62131 35083 ft 485 kts 82°
2026-04-24 14:54 52.26832 14.73113 35078 ft 485 kts 82°
2026-04-24 14:55 52.27164 14.82241 35078 ft 484 kts 82°
2026-04-24 14:55 52.27619 14.95088 35072 ft 485 kts 82°
2026-04-24 14:56 52.27995 15.06004 35075 ft 485 kts 82°
2026-04-24 14:56 52.28363 15.17000 35071 ft 485 kts 82°
2026-04-24 14:57 52.28722 15.28003 35073 ft 485 kts 82°
2026-04-24 14:57 52.29012 15.37142 35078 ft 485 kts 82°
2026-04-24 14:58 52.29408 15.50012 35085 ft 485 kts 82°
2026-04-24 14:58 52.29735 15.61019 35086 ft 485 kts 82°
2026-04-24 14:59 52.30052 15.72015 35092 ft 485 kts 82°
2026-04-24 14:59 52.30359 15.83021 35091 ft 485 kts 82°
2026-04-24 15:00 52.30655 15.93967 35086 ft 485 kts 82°
2026-04-24 15:00 52.30941 16.04977 35077 ft 485 kts 82°
2026-04-24 15:01 52.31218 16.15984 35067 ft 485 kts 82°
2026-04-24 15:01 52.31484 16.26985 35047 ft 485 kts 82°
2026-04-24 15:02 52.31697 16.36147 35043 ft 485 kts 82°
2026-04-24 15:02 52.31945 16.47160 35047 ft 485 kts 82°
2026-04-24 15:03 52.32182 16.58178 35049 ft 485 kts 82°
2026-04-24 15:03 52.32409 16.69202 35049 ft 485 kts 82°
2026-04-24 15:04 52.32629 16.80272 34619 ft 490 kts 83°
2026-04-24 15:04 52.32735 16.85841 34241 ft 489 kts 83°
2026-04-24 15:04 52.32836 16.91410 33801 ft 486 kts 83°
2026-04-24 15:04 52.32934 16.96893 33358 ft 485 kts 83°
2026-04-24 15:05 52.33030 17.02411 32934 ft 485 kts 83°
2026-04-24 15:05 52.33125 17.07928 32512 ft 485 kts 83°
2026-04-24 15:05 52.33217 17.13445 32093 ft 485 kts 83°
2026-04-24 15:05 52.33306 17.18952 31680 ft 485 kts 83°
2026-04-24 15:06 52.33393 17.24472 31262 ft 485 kts 83°
2026-04-24 15:06 52.33477 17.29988 30857 ft 485 kts 83°
2026-04-24 15:06 52.33559 17.35502 30454 ft 485 kts 83°
2026-04-24 15:06 52.33638 17.41019 30040 ft 486 kts 84°
2026-04-24 15:07 52.33714 17.46548 29557 ft 486 kts 84°
2026-04-24 15:07 52.33788 17.52076 29092 ft 486 kts 84°
2026-04-24 15:07 52.33859 17.57596 28653 ft 485 kts 84°
2026-04-24 15:07 52.33926 17.63048 28210 ft 485 kts 84°
2026-04-24 15:08 52.33993 17.68627 27769 ft 483 kts 84°
2026-04-24 15:08 52.34055 17.74106 27325 ft 482 kts 84°
2026-04-24 15:08 52.34115 17.79501 26903 ft 481 kts 84°
2026-04-24 15:08 52.34171 17.84932 26456 ft 473 kts 84°
2026-04-24 15:09 52.34223 17.90277 26030 ft 466 kts 84°
2026-04-24 15:09 52.34271 17.95522 25615 ft 458 kts 84°
2026-04-24 15:09 52.34318 18.00690 25208 ft 452 kts 85°
2026-04-24 15:09 52.34363 18.05794 24801 ft 445 kts 85°
2026-04-24 15:10 52.34405 18.10822 24402 ft 440 kts 85°
2026-04-24 15:10 52.34445 18.15791 24011 ft 434 kts 85°
2026-04-24 15:10 52.34483 18.20699 23611 ft 430 kts 85°
2026-04-24 15:10 52.34519 18.25563 23158 ft 425 kts 85°
2026-04-24 15:11 52.34551 18.30371 22732 ft 420 kts 85°
2026-04-24 15:11 52.34582 18.35126 22322 ft 416 kts 85°
2026-04-24 15:11 52.34610 18.39846 21938 ft 413 kts 85°
2026-04-24 15:11 52.34636 18.44526 21560 ft 410 kts 85°
2026-04-24 15:12 52.34661 18.49183 21183 ft 408 kts 85°
2026-04-24 15:12 52.34704 18.58396 20435 ft 403 kts 86°
2026-04-24 15:12 52.34722 18.62966 20065 ft 401 kts 86°
2026-04-24 15:13 52.34738 18.67503 19685 ft 396 kts 86°
2026-04-24 15:13 52.34752 18.71921 19322 ft 392 kts 86°
2026-04-24 15:13 52.34764 18.76355 18957 ft 387 kts 86°
2026-04-24 15:13 52.34775 18.80742 18600 ft 383 kts 86°
2026-04-24 15:14 52.34784 18.85083 18236 ft 380 kts 86°
2026-04-24 15:14 52.34792 18.89379 17831 ft 376 kts 86°
2026-04-24 15:14 52.34798 18.93639 17447 ft 372 kts 86°
2026-04-24 15:14 52.34802 18.97854 17079 ft 368 kts 87°
2026-04-24 15:15 52.34805 19.02016 16741 ft 364 kts 87°
2026-04-24 15:15 52.34807 19.06128 16391 ft 360 kts 87°
2026-04-24 15:15 52.34808 19.10211 16041 ft 357 kts 87°
2026-04-24 15:15 52.34808 19.14252 15702 ft 354 kts 88°
2026-04-24 15:16 52.34805 19.18259 15360 ft 351 kts 88°
2026-04-24 15:16 52.34801 19.22228 15027 ft 348 kts 88°
2026-04-24 15:16 52.34887 19.26140 14789 ft 341 kts 84°
2026-04-24 15:16 52.35076 19.29981 14556 ft 338 kts 83°
2026-04-24 15:17 52.35291 19.33798 14340 ft 336 kts 82°
2026-04-24 15:17 52.35503 19.37601 14112 ft 335 kts 83°
2026-04-24 15:17 52.35707 19.41383 13892 ft 333 kts 82°
2026-04-24 15:17 52.36105 19.45044 13626 ft 330 kts 74°
2026-04-24 15:18 52.36703 19.48653 13377 ft 326 kts 71°
2026-04-24 15:18 52.37345 19.52194 13138 ft 324 kts 71°
2026-04-24 15:18 52.37987 19.55730 12904 ft 323 kts 71°
2026-04-24 15:18 52.38615 19.59255 12690 ft 322 kts 71°
2026-04-24 15:19 52.39229 19.62777 12465 ft 321 kts 72°
2026-04-24 15:19 52.39817 19.66293 12242 ft 320 kts 73°
2026-04-24 15:19 52.40341 19.69835 12020 ft 319 kts 75°
2026-04-24 15:19 52.40839 19.73363 11811 ft 318 kts 75°
2026-04-24 15:20 52.41334 19.76893 11592 ft 317 kts 75°
2026-04-24 15:20 52.41829 19.80415 11372 ft 316 kts 75°
2026-04-24 15:20 52.42323 19.83916 11148 ft 315 kts 75°
2026-04-24 15:20 52.42817 19.87405 10940 ft 314 kts 75°
2026-04-24 15:21 52.43311 19.90893 10720 ft 313 kts 75°
2026-04-24 15:21 52.43803 19.94355 10508 ft 312 kts 75°
2026-04-24 15:21 52.44292 19.97809 10298 ft 309 kts 75°
2026-04-24 15:21 52.44777 20.01229 10078 ft 305 kts 75°
2026-04-24 15:22 52.45251 20.04592 9867 ft 300 kts 75°
2026-04-24 15:22 52.45711 20.07857 9643 ft 296 kts 75°
2026-04-24 15:22 52.46170 20.11116 9430 ft 293 kts 74°
2026-04-24 15:23 52.47078 20.17575 9014 ft 289 kts 75°
2026-04-24 15:23 52.47971 20.23965 8616 ft 286 kts 75°
2026-04-24 15:23 52.48414 20.27142 8424 ft 285 kts 75°
2026-04-24 15:24 52.49730 20.36617 7837 ft 284 kts 75°
2026-04-24 15:25 52.50453 20.41857 7511 ft 283 kts 75°
2026-04-24 15:25 52.51461 20.49190 7071 ft 281 kts 75°
2026-04-24 15:26 52.52720 20.58393 6484 ft 270 kts 75°
2026-04-24 15:27 52.53791 20.67314 5898 ft 260 kts 79°
2026-04-24 15:27 52.54540 20.75755 5416 ft 235 kts 79°
2026-04-24 15:28 52.55413 20.85414 4835 ft 199 kts 85°
2026-04-24 15:29 52.53835 20.88601 4142 ft 196 kts 176°
2026-04-24 15:30 52.49910 20.87271 3291 ft 190 kts 198°
2026-04-24 15:31 52.46693 20.81865 2410 ft 181 kts 264°
2026-04-24 15:32 52.46012 20.74613 1541 ft 143 kts 263°
2026-04-24 15:33 52.45404 20.68235 550 ft 132 kts 262°
2026-04-24 15:33 52.45049 20.64403 352 ft 61 kts 261°
2026-04-24 15:34 52.44962 20.63480 350 ft 23 kts 257°
2026-04-24 15:35 52.44733 20.63434 347 ft 7 kts 171°
2026-04-24 15:35 52.44645 20.63467 353 ft 6 kts 144°
2026-04-24 15:35 52.44629 20.63549 345 ft 13 kts 83°
2026-04-24 15:36 52.44645 20.63716 342 ft 16 kts 81°
2026-04-24 15:36 52.44683 20.64124 349 ft 20 kts 82°
2026-04-24 15:36 52.44705 20.64358 342 ft 22 kts 81°
2026-04-24 15:37 52.44729 20.64605 343 ft 20 kts 81°
2026-04-24 15:37 52.44751 20.64832 353 ft 20 kts 81°
2026-04-24 15:37 52.44763 20.64959 348 ft 16 kts 81°
2026-04-24 15:37 52.44749 20.65033 353 ft 2 kts 178°
2026-04-24 15:38 52.44731 20.65028 348 ft 3 kts 197°
2026-04-24 15:38 52.44721 20.65019 349 ft 0 kts 205°